Regional Weather Roundup
Issued by NWS

Home | Current Version | Previous Version | Graphics & Text | Print | Product List | Glossary On
Versions: 1 2 3 4 5 6 7 8 9 10 11 12 13 14 15 16 17 18 19 20 21 22 23 24 25 26 27 28 29 30 31 32 33 34 35 36 37 38 39 40 41 42 43 44 45 46 47 48 49 50
000
ASUS45 KPSR 272310
RWRAZ

ARIZONA HOURLY REGIONAL WEATHER ROUNDUP
NATIONAL WEATHER SERVICE PHOENIX AZ
400 PM MST THU AUG 27 2015

NOTE: FAIR INDICATES FEW OR NO CLOUDS BELOW 12,000 FEET WITH NO
SIGNIFICANT WEATHER AND/OR OBSTRUCTIONS TO VISIBILITY.

AZZ001>003-036-280000-
NORTHWEST ARIZONA

CITY           SKY/WX    TMP DP  RH WIND       PRES   REMARKS
BULLHEAD CITY  PTSUNNY  104  54  18 N16       29.83F HX 102
KINGMAN        MOSUNNY   96  51  21 N9        30.07F
$$

AZZ004>008-015-016-018-280000-
NORTH CENTRAL ARIZONA

CITY           SKY/WX    TMP DP  RH WIND       PRES   REMARKS
GRAND CANYON   MOSUNNY   80  45  28 MISG      30.32F
WILLIAMS       CLOUDY    77  46  33 N7        30.39S
PRESCOTT       CLOUDY    78  64  61 S9        30.21F
FLAGSTAFF      TSTM      60  57  89 SE8       30.39F
PAYSON         CLOUDY    70  64  83 VRB7      30.27F
PAGE           SUNNY     90  48  23 VRB5      30.13F
$$

AZZ009>014-017-280000-
NORTHEAST ARIZONA

CITY           SKY/WX    TMP DP  RH WIND       PRES   REMARKS
WINSLOW        CLOUDY    78  58  49 SW14      30.21F
SAINT JOHNS    CLOUDY    76  58  53 SW10      30.28S
WINDOW ROCK    PTSUNNY   79  46  31 N10       30.30F
SHOW LOW       CLOUDY    64  55  72 SE3       30.36R
$$

AZZ023-280000-
GREATER PHOENIX AREA

CITY           SKY/WX    TMP DP  RH WIND       PRES   REMARKS
PHOENIX        PTSUNNY  106  55  18 W12       29.84F HX 105
BUCKEYE        PTSUNNY  102  55  21 SW7       29.85S HX 101
GLENDALE       PTSUNNY   97  63  32 NW29G39   29.88R THUNDER BLWGDUST
LUKE AFB       PTSUNNY   88  72  58 NW26G45   29.88R
DEER VALLEY    MOSUNNY   93  62  35 NW23G37   29.91R
SCOTTSDALE     PTSUNNY   99  57  25 W14G23    29.90F
MESA-FALCON    PTSUNNY  100  57  23 N23G29    29.89S
MESA-GATEWAY   MOSUNNY  100  61  27 N29       29.90F BLWGDUSTHX 101
CHANDLER       PTSUNNY  104  59  22 W6        29.87F HX 104
$$

AZZ027-028-280000-
SOUTHWEST MARICOPA COUNTY AND PINAL COUNTY

CITY           SKY/WX    TMP DP  RH WIND       PRES   REMARKS
CASA GRANDE    CLOUDY   100  61  27 W6        29.88F HX 101
GILA BEND      PTSUNNY   99  63  30 SW14      29.82F HX 100
$$

AZZ503-504-507>509-280000-
SOUTHEAST ARIZONA

CITY           SKY/WX    TMP DP  RH WIND       PRES   REMARKS
TUCSON         MOSUNNY   99  53  21 CALM      29.98F
DAVIS-MONTHAN  CLOUDY    98  55  23 W6        29.96F
RYAN FIELD     SUNNY    100  55  22 CALM      29.96F
NOGALES        CLOUDY    91  55  29 N5        30.09F
SIERRA VISTA   PTSUNNY   85  58  39 NW6       30.16F
DOUGLAS        PTSUNNY   81  66  60 E8        30.12S
SAFFORD        MOSUNNY   94  58  29 VRB3      30.02F
$$

AZZ020-021-025-026-031-280000-
SOUTHWEST ARIZONA

CITY           SKY/WX    TMP DP  RH WIND       PRES   REMARKS
YUMA           PTSUNNY  109  61  21 VRB6      29.79F HX 111
$$

CAZ031-033-041-043-047-048-061-280000-
SOUTHERN CALIFORNIA

CITY           SKY/WX    TMP DP  RH WIND       PRES   REMARKS
DOWNTOWN L.A.  SUNNY     89  57  33 W7        29.88F
L.A. AIRPORT   MOSUNNY   81  63  54 W12       29.90F
SAN DIEGO      MOSUNNY   86  61  42 NW6       29.91F
BURBANK        SUNNY     97  51  21 S10G18    29.90F
ONTARIO        MOSUNNY  101  52  19 W14       29.89F
RIVERSIDE      SUNNY    101  50  18 W13G20    29.88F
PALM SPRINGS   MOSUNNY  111  56  16 SE12G18   29.81F HX 110
EL CENTRO NAS  CLOUDY   107  57  19 S5        29.78F HX 107
IMPERIAL       CLOUDY   108  57  18 SW6       29.77F HX 108
BLYTHE         MOSUNNY  106  60  22 S21       29.79F HX 107
NEEDLES        PTSUNNY  104  57  21 W17       29.83F THUNDER HX 103
$$

NVZ020-UTZ003-280000-
SOUTHERN NEVADA-UTAH

CITY           SKY/WX    TMP DP  RH WIND       PRES   REMARKS
LAS VEGAS      PTSUNNY  100  51  19 VRB6      29.93F
SALT LAKE CITY MOSUNNY   87  51  28 N8        30.14F
$$

NMZ009-TXZ055-280000-
NEW MEXICO-WEST TEXAS

CITY           SKY/WX    TMP DP  RH WIND       PRES   REMARKS
ALBUQUERQUE    PTSUNNY   84  50  30 W12       30.18F
EL PASO        PTSUNNY   92  52  25 W6        30.05F
$$


........................KEY........................
SKY/WX - SKY CONDITION/WEATHER
TMP    - TEMPERATURE IN FAHRENHEIT
DP     - DEW POINT IN FAHRENHEIT
RH     - RELATIVE HUMIDITY IN PERCENT
WIND   - DIRECTION AND SPEED IN MILES PER HOUR (MPH)
VRB    - VARIABLE WIND DIRECTION
PRES   - MEAN SEA LEVEL PRESSURE IN INCHES OF MERCURY
         F - FALLING PRESSURE   R - RISING PRESSURE
         S - STEADY PRESSURE
VSB    - VISIBILITY IN MILES
HX     - HEAT INDEX IN FAHRENHEIT
WCI    - WIND CHILL INDEX IN FAHRENHEIT
TC     - TEMPERATURE IN CELSIUS WHICH IS ALSO KNOWN AS
         TEMPERATURE IN CENTIGRADE
AFB    - AIR FORCE BASE
         LUKE AFB IS LUKE AIR FORCE BASE
         DAVIS-MONTHAN IS DAVIS-MONTHAN AIR FORCE BASE
NAS    - NAVAL AIR STATION
         EL CENTRO NAS IS EL CENTRO NAVAL AIR STATION
N/A    - NOT AVAILABLE



USA.gov is the U.S. government's official web portal to all federal, state and local government web resources and services.